Вернуться в каталог

JILIN-01-06

АктивенНаукаSSO
NORAD 43024·PAYLOAD·🇨🇳 China

Запущен Nov 21, 2017 с Taiyuan Satellite Launch Center

Loading…

Ближайшие Пролёты (ближайшие 24 часа)

TLE

СвежийSource: Space-Track

Эпоха: Sep 14, 2026, 21:45 UTC

1 43024U 17074C   26257.90652434  .00006465  00000-0  19522-3 0  9990
2 43024  97.4830   2.2472 0005215 283.2576  76.8085 15.34604094487592

Отслеживайте JILIN-01-06 в реальном времени с AllMySat

Download on the App Store